This demonstration page uses our WeatherBlox Daily Observations layout. Learn more.

41.55636, -103.73856

Hourly Observations for January 23, 2019

Temp ( °F °C ) Dew Point ( °F °C ) Humidity (%) Winds ( mph kmh ) Pressure ( in mb ) Visibility ( mi km ) Precip ( " mm )
12:53 am 00:53 Clear 12 -11.1 9 -12.8 87 87 NNW 8 13 30.15 1021 10 16.09344 0 0
1:53 am 01:53 Clear 14 -10 10 -12.2 84 84 NW 10 17 30.15 1021 10 16.09344 0 0
2:53 am 02:53 Clear 12 -11.1 9 -12.8 87 87 NW 8 13 30.15 1021 10 16.09344 0 0
3:53 am 03:53 Clear 10 -12.2 7 -13.9 87 87 NW 7 11 30.12 1020 10 16.09344 0 0
4:53 am 04:53 Clear 13 -10.6 9 -12.8 84 84 NW 9 15 30.12 1020 10 16.09344 0 0
5:53 am 05:53 Clear 12 -11.1 8 -13.3 84 84 NNW 6 9 30.15 1021 10 16.09344 0 0
6:53 am 06:53 Clear 12 -11.1 8 -13.3 84 84 WNW 7 11 30.15 1021 10 16.09344 0 0
7:53 am 07:53 Sunny 18 -7.8 12 -11.1 77 77 WNW 10 17 30.12 1020 10 16.09344 0 0
8:53 am 08:53 Sunny 26 -3.3 17 -8.3 69 69 WNW 12 19 30.09 1019 10 16.09344 0 0
9:53 am 09:53 Sunny 31 -0.6 18 -7.8 59 59 WNW 14 22 30.06 1018 10 16.09344 0 0
10:53 am 10:53 Sunny 35 1.7 20 -6.7 54 54 WNW 23 37 30.06 1018 10 16.09344 0 0
11:53 am 11:53 Sunny 36 2.2 20 -6.7 52 52 WNW 22 35 30.03 1017 10 16.09344 0 0
12:53 pm 12:53 Mostly Cloudy 37 2.8 21 -6.1 52 52 WNW 22 35 30 1016 10 16.09344 0 0
1:53 pm 13:53 Cloudy 36 2.2 22 -5.6 57 57 WNW 13 20 29.97 1015 10 16.09344 0 0
2:53 pm 14:53 Cloudy 36 2.2 22 -5.6 57 57 WNW 17 28 29.97 1015 10 16.09344 0 0
3:53 pm 15:53 Cloudy 36 2.2 22 -5.6 57 57 WNW 8 13 30 1016 10 16.09344 0 0
4:53 pm 16:53 Cloudy 34 1.1 23 -5 64 64 WNW 9 15 30 1016 10 16.09344 0 0
5:53 pm 17:53 Mostly Cloudy 31 -0.6 22 -5.6 69 69 WNW 7 11 30.03 1017 10 16.09344 0 0
6:53 pm 18:53 Cloudy 27 -2.8 22 -5.6 81 81 WNW 7 11 30.06 1018 10 16.09344 0 0
7:53 pm 19:53 Cloudy 30 -1.1 22 -5.6 72 72 NW 10 17 30.06 1018 10 16.09344 0 0
8:53 pm 20:53 Cloudy 30 -1.1 21 -6.1 69 69 NNW 9 15 30.06 1018 10 16.09344 0 0
9:53 pm 21:53 Cloudy 29 -1.7 22 -5.6 75 75 NW 10 17 30.06 1018 10 16.09344 0 0
10:53 pm 22:53 Cloudy 28 -2.2 23 -5 81 81 WNW 6 9 30.06 1018 10 16.09344 0 0
11:53 pm 23:53 Cloudy with Light Snow 29 -1.7 25 -3.9 85 85 W 7 11 30.09 1019 8 12.874752 0.001 0.001

Powered by AerisWeather